Regional Weather Roundup
Issued by NWS

Home | Current Version | Previous Version | Graphics & Text | Print | Product List | Glossary On
Versions: 1 2 3 4 5 6 7 8 9 10 11 12 13 14 15 16 17 18 19 20 21 22 23 24 25 26 27 28 29 30 31 32 33 34 35 36 37 38 39 40 41 42 43 44 45 46 47 48 49 50
000
ASUS45 KABQ 220401
RWRNM
NEW MEXICO REGIONAL WEATHER ROUNDUP
NATIONAL WEATHER SERVICE ALBUQUERQUE NM
900 PM MST TUE FEB 21 2017

NOTE: "FAIR" MEANS FEW OR NO CLOUDS BELOW 12,000 FEET AGL WITH NO
       SIGNIFICANT WEATHER OR OBSTRUCTIONS TO VISION.

      THIS PRODUCT IS RELEASED AS TWO VERSIONS.  ONE VERSION NEAR
      THE TOP OF THE HOUR CONTAINING PRELIMINARY DATA FROM ALBUQUERQUE
      AND OTHER STATIONS.  A FINAL VERSION WITH ADDITIONAL DATA IS
      ISSUED ABOUT 10 MINUTES AFTER THE HOUR.

NMZ501-503-504-510>518-220500-
NORTHWEST PLATEAU/NORTHCENTRAL MOUNTAINS

CITY           SKY/WX    TMP DP  RH WIND       PRES   REMARKS
FARMINGTON     FAIR      54  31  41 E3        30.19R
LOS ALAMOS     FAIR      49  23  36 N6        30.27S
SANTA FE       FAIR      45  22  40 N9        30.23R
TAOS             N/A     37  19  48 E9        30.26S WCI  31
ANGEL FIRE     FAIR      40  21  46 W14       30.29S WCI  33

$$
NMZ402-403-502-505>509-220500-
WESTCENTRAL MOUNTAINS/SOUTHWEST MOUNTAINS

CITY           SKY/WX    TMP DP  RH WIND       PRES   REMARKS
GALLUP         FAIR      41  31  67 NE3       30.27S
GRANTS         FAIR      39  28  64 CALM      30.29S
SILVER CITY    FAIR      48  36  63 NW12      30.28R

$$
NMZ407-409-411-412-220500-
SOUTHERN DESERTS

CITY           SKY/WX    TMP DP  RH WIND       PRES   REMARKS
DEMING         FAIR      56  39  53 W10       30.23R
LAS CRUCES     FAIR      57  34  41 W14       30.21F
HOLLOMAN AFB   FAIR      56  32  40 E6        30.21S
ALAMOGORDO     FAIR      55  30  38 E7        30.19S
T OR C         FAIR      57  36  45 CALM      30.19R

$$
NMZ519>523-220500-
CENTRAL VALLEYS/CENTRAL HIGHLANDS

CITY           SKY/WX    TMP DP  RH WIND       PRES   REMARKS
ALBUQUERQUE    FAIR      53  29  39 SW5       30.22R
DOUBLE EAGLE   PTCLDY    45  28  53 W10       30.24R
MORIARTY ARPT  FAIR      40  27  58 CALM      30.25S
CLINES CORNERS FAIR      41  22  46 W13       30.25S
BELEN          FAIR      49  32  51 W3        30.22S
SOCORRO        FAIR      55  35  47 S6        30.20S

$$
NMZ524>526-539-540-220500-
SOUTHCENTRAL MOUNTAINS

CITY           SKY/WX    TMP DP  RH WIND       PRES   REMARKS
RUIDOSO        NOT AVBL

$$
NMZ527>531-220500-
NORTHEAST HIGHLANDS/NORTHEAST PLAINS

CITY           SKY/WX    TMP DP  RH WIND       PRES   REMARKS
LAS VEGAS      FAIR      48  14  25 NW5       30.20R
RATON          FAIR      48   8  19 SW13      30.14F
CLAYTON        FAIR      54  25  32 W13       30.06R

$$
NMZ532>537-220500-
EASTCENTRAL PLAINS

CITY           SKY/WX    TMP DP  RH WIND       PRES   REMARKS
TUCUMCARI      FAIR      59  29  31 W14       30.01S
CANNON AFB     FAIR      60  19  20 W16       30.06F
CLOVIS AIRPORT FAIR      48  28  46 W6        30.07S

$$
NMZ028-029-538-220500-
SOUTHEAST PLAINS

CITY           SKY/WX    TMP DP  RH WIND       PRES   REMARKS
ROSWELL        FAIR      63  28  26 W8          N/A
ARTESIA        FAIR      57  34  41 W13       30.09R
CARLSBAD       FAIR      66  29  24 NW10      30.05S
HOBBS          FAIR      57  32  38 W7        30.09S


$$




USA.gov is the U.S. government's official web portal to all federal, state and local government web resources and services.